SL-14 DEB, 45289

Orbit data source: Space-Track

SL-14 DEB, 45289 is space debris in LEO originally from a launch on Thu, 15 Aug 1991 UTC launched from the Plesetsk Missile And Space Complex (PKMTR). Debris objects in space refer to the collection of defunct objects orbiting the Earth. Examples of debris include non-operational satellites, rocket bodies, and fragments generated from explosions, collisions, or faulty payload assembly.

Loading next visibility...
Identifier
45289, 1991-056AB
Orbit
LEO
Country
Flag of CISCIS
Related business
Manufacturer
Unknown
Mission
Spacecraft
Bus & Motor
Unknown
Mass
Unknown
Launch date (UTC)
1991-08-15 (34 years ago)
Launch vehicle
Unknown
Launch site
Plesetsk Missile And Space Complex (PKMTR)
Object type
Payload
Rocket body
Debris
Shape & HBR
Unknown shape, 0.2 m
Radar Cross Section
Small (<0.1 m²)

Expand to show TLE details & history
Last TLE update: 9 hours ago

TLE from 9 hours ago
0 SL-14 DEB
1 45289U 91056AB  26036.75839468 -.00000844  00000-0 -33773-2 0  9999
2 45289  82.5408 319.4591 0176905 166.9835 193.5924 12.83055245279405
Epoch: 2026-02-05T18:12Z
TLE epoch observation values (Epoch: 2026-02-05T18:12:05.300Z)
Latitude
0.00002°
Longitude
-89.46901°
Altitude
1,464.652 km
Speed
7.069 km/s
True Right ascension
21h 17m 50s
True Declination
0° 00' 00"
Sunlit
Object was in daylight at epoch
Visualization orbit readout
Latitude
Unknown
Longitude
Unknown
Altitude
Unknown
Speed
Unknown
Apparent Right ascension
Unknown
Apparent Declination
Unknown
Sunlit
N/A
Visualization observer readout
Local Sidereal Time
05:36:34
Azimuth
Unknown
Elevation
Unknown
Doppler factor
Unknown
Orbital elements
Apogee altitude
1,462.801 km
Perigee altitude
1,190.203 km
Semi-major axis
7,704.639 km
Eccentricity
0.01769
Inclination
82.5408°
RAAN
319.4591°
Arg. of periapsis
166.9835°
True anomaly
193.12602°
Mean anomaly
193.5924°
Eccentric anomaly
193.35822°
Mean motion
3.20933 °/min
Orbital period
112.17 mins
BSTAR
-0.0033773
Loading maneuver chart data...
Computing Atmospheric mass density...
Loading historical data...
Loading historical data...
Loading historical data...
Loading historical data...
Loading historical data...
Loading historical data...
Loading historical data...

Documentation

Showing up to 5 results
|